Regional Weather Roundup
Issued by NWS

Home | Current Version | Previous Version | Text Only | Print | Product List | Glossary On
Versions: 1 2 3 4 5 6 7 8 9 10 11 12 13 14 15 16 17 18 19 20 21 22 23 24 25 26 27 28 29 30 31 32 33 34 35 36 37 38 39 40 41 42 43 44 45 46 47 48 49 50
000
ASUS44 KFWD 300415
RWRTX
NORTH TEXAS HOURLY WEATHER ROUNDUP
NATIONAL WEATHER SERVICE FORT WORTH TX
1100 PM CDT FRI JUL 29 2016

NOTE: "FAIR" INDICATES FEW OR NO CLOUDS BELOW 12,000 FEET WITH NO
SIGNIFICANT WEATHER AND/OR OBSTRUCTIONS TO VISIBILITY.

TXZ118-119-300500-
DALLAS/FORT WORTH METROPLEX

CITY           SKY/WX    TMP DP  RH WIND       PRES   REMARKS
DFW AIRPORT    PTCLDY    87  69  54 S8        29.94R HX  91
DALLAS LOVE    PTCLDY    87  72  60 SE8       29.95R HX  93
FTW MEACHAM    CLEAR     86  68  54 S6        29.95R
DAL-EXECUTIVE  CLEAR     82  70  66 SE6       29.95R
FTW-ALLIANCE   PTCLDY    82  69  64 S5        29.95R
FTW-NAS-JRB    PTCLDY    85  68  56 S7        29.95R
FTW-SPINKS     CLEAR     82  69  65 S6        29.96R
ARLINGTON      CLEAR     83  70  64 SE5       29.95R
GRAND PRAIRIE  CLEAR     85  70  61 SE3       29.96R
ADDISON        CLEAR     87  74  65 SE8       29.97R HX  94
MESQUITE       CLEAR     81  74  78 SE5       29.96R
LANCASTER      CLEAR     83  73  72 CALM      29.97R
$$

TXZ091>094-102>105-117-120-121-131>134-300500-
NORTH CENTRAL TEXAS

CITY           SKY/WX    TMP DP  RH WIND       PRES   REMARKS
SHRMAN/DENISON CLEAR     84  73  70 S6        29.98R HX  91
GAINESVILLE    CLEAR     80  72  76 CALM      29.99R
BOWIE          CLEAR     79  73  83 CALM      29.97R
BRIDGEPORT     CLEAR     77  74  92 CALM      29.98R
DECATUR        CLEAR     82  69  64 SE3       29.97R
DENTON         CLEAR     81  74  79 SE5       29.95R
MCKINNEY       CLEAR     83  73  72 SE7       29.96R
GREENVILLE     CLEAR     81  72  74 SE7       29.98R
ROCKWALL       CLEAR     83  73  72 S5        29.96R
TERRELL        CLEAR     83  73  72 SE6       29.98R
WAXAHACHIE     CLEAR     80  72  75 CALM      29.98R
CLEBURNE       CLEAR     82  73  74 SE6       29.98R
GRANBURY       CLEAR     85  69  58 S6        29.97R
$$

TXZ083>090-098>101-113>116-127>130-139>142-154-155-300500-
WESTERN NORTH TEXAS

CITY           SKY/WX    TMP DP  RH WIND       PRES   REMARKS
WICHITA FALLS  CLEAR     81  70  69 S8        29.95R
WF-KICKAPOO    CLEAR     84  70  62 S5        29.97R
VERNON         CLEAR     85  63  48 NE12      29.98R
ABILENE        CLEAR     79  66  64 SE7       30.00R
ABILENE-DYESS  CLEAR     78  68  70 S6        29.98R
CISCO          CLEAR     81  66  61 S7        30.00R HAZE
BRECKENRIDGE   CLEAR     82  68  62 SE8       29.97R
GRAHAM         CLEAR     80  71  74 CALM      29.96R
MINERAL WELLS  CLEAR     78  74  87 SE6       29.95R
STEPHENVILLE   CLEAR     79  67  66 CALM      30.01R
COMANCHE       CLEAR     81  65  58 CALM      29.99R
BROWNWOOD      PTCLDY    81  64  57 CALM      29.99R
COLEMAN        CLEAR     79  67  68 SE3       30.00R
$$

TXZ143>147-156>162-174-175-300500-
CENTRAL TEXAS

CITY           SKY/WX    TMP DP  RH WIND       PRES   REMARKS
WACO           CLEAR     83  70  64 S7        29.95R
WACO-TSTC      CLEAR     81  72  74 CALM      29.96R
WACO-MCGREGOR  CLEAR     83  68  60 S7        29.96R
HILLSBORO      CLEAR     83  67  60 E8        29.97R
CORSICANA      CLEAR     82  74  76 SE7       29.97R
MEXIA          CLEAR     81  72  76 S9        29.96R
HEARNE         CLEAR     83  73  73 CALM      29.97R
CAMERON        CLEAR     85  72  65 S9        29.96R HX  90
TEMPLE         CLEAR     84  69  60 S6        29.97R
KILLEEN        CLEAR     81  66  59 SE5       29.97R
KILLEEN-SKYLRK CLEAR     83  69  62 S6        29.98R
FORT HOOD      CLEAR     83  67  59 S6        29.95R
GATESVILLE     CLEAR     82  64  54 S7        29.99R
HAMILTON       CLEAR     81  65  59 S6        30.00R
LAMPASAS       CLEAR     82  68  62 CALM      29.98R
$$

TXZ095>097-106>112-122>126-135>138-148>153-164>167-300500-
EAST TEXAS

CITY           SKY/WX    TMP DP  RH WIND       PRES   REMARKS
PARIS          CLOUDY    75  61  60 E16       30.02R
SULPHUR SPRNGS CLEAR     83  73  71 SE6       30.01R
MOUNT PLEASANT MOCLDY    79  63  57 NE12G21   30.04R
GILMER         CLEAR     77  74  90 CALM      29.99R
MINEOLA        CLEAR     79  75  89 CALM      29.99R
TYLER          CLEAR     81  73  76 S5        29.98R
LONGVIEW       CLEAR     79  73  82 S5        29.98R
MARSHALL       CLEAR     75  72  91 CALM      30.01R
ATHENS         CLEAR     77  73  88 CALM      29.97R
PALESTINE      CLEAR     80  72  77 SE3       29.98R
JACKSONVILLE   CLEAR     79  72  79 S5        30.01R
HENDERSON      CLEAR     76  73  90 CALM      30.00R
CENTER         CLEAR     77  76  96 CALM      30.00R
NACOGDOCHES    CLEAR    N/A N/A N/A CALM      29.97R
LUFKIN         CLEAR     76  73  91 SE5       29.98R
$$

SUPPLEMENTAL OBSERVATIONS (CENTRAL)

CITY           SKY/WX    TMP DP  RH WIND       PRES   REMARKS
DENISON DAM      N/A     84  73  70 S2          N/A  HX  91
CADDO GRASSLND   N/A     82  70  65 SE8G18      N/A
PAT MAYSE LAKE   N/A     72  70  94 E6          N/A
GREENVILLE       N/A     82  72  69 SE3         N/A
CEDAR HILL       N/A     82  70  65 SE6         N/A
ATHENS           N/A     81  75  83 SE5         N/A
LAKE LIMESTONE   N/A     81  72  74 SE5         N/A
MCGREGOR         N/A     81  66  61 S6          N/A
TEMPLE           N/A     82  68  61 SE3         N/A
$$

SUPPLEMENTAL OBSERVATIONS (WEST)

CITY           SKY/WX    TMP DP  RH WIND       PRES   REMARKS
POSSUM KINGDOM   N/A     82  70  65 CALM        N/A
LBJ GRASSLAND    N/A     81  70  69 E2          N/A
GRANBURY         N/A     84  68  58 S7          N/A
COMANCHE         N/A     81  64  57 S3          N/A
HAMBY            N/A     77  66  69 SE3         N/A
$$

SUPPLEMENTAL OBSERVATIONS (EAST)

CITY           SKY/WX    TMP DP  RH WIND       PRES   REMARKS
CLARKSVILLE      N/A     72  68  88 S1G10       N/A
TEXARKANA        N/A     77  68  73 N6G16       N/A
LINDEN           N/A     79  72  78 NE2         N/A
GILMER           N/A     77  73  88 CALM        N/A
HENDERSON        N/A     75  72  88 E1          N/A
LUFKIN           N/A     77  75  94 MISG        N/A
N SABINE NF      N/A     75  72  88 MISG        N/A
S SABINE NF      N/A     75  73  94 CALM        N/A
$$

SUPPLEMENTAL OBSERVATIONS ARE A COLLECTION OF AUTOMATED INSTRUMENTS
THAT ARE MAINTAINED BY A VARIETY OF FEDERAL AND STATE AGENCIES.
CERTAIN ELEMENTS...SUCH AS HUMIDITY VALUES AND SUSTAINED WIND
SPEEDS...MAY BE APPROXIMATED.




USA.gov is the U.S. government's official web portal to all federal, state and local government web resources and services.